| time (UTC) | temp C | wind direction | speed KPH | gust KPH | rain 1hr cm | rain 24hr cm | rain mn cm | humidity % | barometer mb |
| 20260906123127 | 22 | 144 | 0.0 | 0.0 | 0.00 | 0.25 | 0.25 | 99 | 1013.6 |
| 20260906122626 | 22 | 124 | 0.0 | 0.0 | 0.00 | 0.25 | 0.25 | 99 | 1013.7 |
| 20260906122122 | 22 | 122 | 0.0 | 0.0 | 0.00 | 0.25 | 0.25 | 99 | 1013.6 |
| 20260906121618 | 22 | 125 | 0.0 | 0.0 | 0.00 | 0.25 | 0.25 | 99 | 1013.4 |
| 20260906121114 | 22 | 124 | 0.0 | 0.0 | 0.00 | 0.25 | 0.25 | 99 | 1013.4 |
| 20260906120610 | 22 | 182 | 0.0 | 1.6 | 0.00 | 0.25 | 0.25 | 99 | 1013.3 |
| 20260906120107 | 22 | 196 | 0.0 | 1.6 | 0.00 | 0.25 | 0.25 | 99 | 1013.4 |
| 20260906115606 | 22 | 167 | 0.0 | 0.0 | 0.00 | 0.25 | 0.25 | 99 | 1013.3 |
| 20260906115102 | 22 | 139 | 0.0 | 0.0 | 0.00 | 0.25 | 0.25 | 99 | 1013.1 |
| 20260906114556 | 21 | 165 | 0.0 | 0.0 | 0.00 | 0.25 | 0.25 | 99 | 1013.1 |
| 20260906114051 | 21 | 157 | 0.0 | 0.0 | 0.00 | 0.25 | 0.25 | 99 | 1013.2 |
| 20260906113550 | 21 | 172 | 0.0 | 1.6 | 0.00 | 0.25 | 0.25 | 99 | 1013.0 |
| 20260906113045 | 21 | 154 | 0.0 | 0.0 | 0.00 | 0.25 | 0.25 | 99 | 1013.0 |
| 20260906112540 | 21 | 85 | 0.0 | 0.0 | 0.00 | 0.25 | 0.25 | 99 | 1012.8 |
| 20260906112037 | 21 | 81 | 0.0 | 0.0 | 0.00 | 0.25 | 0.25 | 99 | 1012.9 |
| 20260906111536 | 21 | 84 | 0.0 | 0.0 | 0.00 | 0.25 | 0.25 | 99 | 1012.8 |
| 20260906111032 | 22 | 53 | 0.0 | 0.0 | 0.00 | 0.25 | 0.25 | 99 | 1012.8 |
| 20260906110531 | 22 | 130 | 0.0 | 0.0 | 0.00 | 0.25 | 0.25 | 99 | 1012.7 |
| 20260906110031 | 22 | 227 | 0.0 | 0.0 | 0.00 | 0.25 | 0.25 | 99 | 1013.1 |
| 20260906105526 | 22 | 113 | 0.0 | 0.0 | 0.00 | 0.25 | 0.25 | 99 | 1012.6 |
| 20260906105022 | 22 | 139 | 0.0 | 0.0 | 0.00 | 0.25 | 0.25 | 99 | 1012.8 |
| 20260906104520 | 22 | 146 | 0.0 | 1.6 | 0.00 | 0.25 | 0.25 | 99 | 1012.6 |
| 20260906104015 | 22 | 136 | 0.0 | 0.0 | 0.00 | 0.25 | 0.25 | 99 | 1012.7 |
| 20260906103513 | 22 | 150 | 0.0 | 0.0 | 0.00 | 0.25 | 0.25 | 99 | 1012.6 |
| 20260906103009 | 22 | 129 | 0.0 | 0.0 | 0.00 | 0.25 | 0.25 | 99 | 1012.5 |
| 20260906102508 | 22 | 196 | 1.6 | 3.2 | 0.00 | 0.25 | 0.25 | 99 | 1012.6 |
| 20260906102003 | 22 | 79 | 0.0 | 1.6 | 0.00 | 0.25 | 0.25 | 99 | 1012.9 |
| 20260906101458 | 22 | 210 | 0.0 | 0.0 | 0.00 | 0.25 | 0.25 | 99 | 1012.8 |
| 20260906100952 | 22 | 153 | 1.6 | 1.6 | 0.00 | 0.25 | 0.25 | 99 | 1012.6 |
| 20260906100448 | 22 | 144 | 0.0 | 1.6 | 0.00 | 0.25 | 0.25 | 98 | 1012.7 |
| 20260906095942 | 22 | 164 | 1.6 | 1.6 | 0.00 | 0.25 | 0.25 | 98 | 1012.8 |
| 20260906095438 | 21 | 181 | 1.6 | 1.6 | 0.00 | 0.25 | 0.25 | 99 | 1012.6 |
| 20260906094932 | 21 | 195 | 0.0 | 1.6 | 0.00 | 0.25 | 0.25 | 99 | 1012.7 |
| 20260906094426 | 21 | 164 | 0.0 | 1.6 | 0.00 | 0.25 | 0.25 | 99 | 1012.8 |
| 20260906093922 | 21 | 169 | 0.0 | 0.0 | 0.00 | 0.25 | 0.25 | 99 | 1012.8 |
| 20260906093419 | 21 | 146 | 0.0 | 1.6 | 0.00 | 0.25 | 0.25 | 99 | 1012.7 |
| 20260906092918 | 21 | 149 | 0.0 | 0.0 | 0.00 | 0.25 | 0.25 | 99 | 1012.8 |
| 20260906092413 | 21 | 137 | 0.0 | 0.0 | 0.18 | 0.25 | 0.25 | 99 | 1012.8 |
| 20260906091909 | 21 | 123 | 0.0 | 0.0 | 0.18 | 0.25 | 0.25 | 99 | 1012.7 |
| 20260906091404 | 21 | 142 | 0.0 | 0.0 | 0.00 | 0.23 | 0.23 | 99 | 1012.7 |
| 20260906090901 | 21 | 136 | 0.0 | 1.6 | 0.00 | 0.23 | 0.23 | 99 | 1012.7 |
| 20260906090400 | 21 | 137 | 0.0 | 0.0 | 0.00 | 0.23 | 0.23 | 99 | 1012.6 |
| 20260906085900 | 22 | 144 | 0.0 | 0.0 | 0.00 | 0.23 | 0.23 | 99 | 1012.5 |
| 20260906085354 | 22 | 141 | 0.0 | 0.0 | 0.00 | 0.23 | 0.23 | 99 | 1012.3 |
| 20260906084849 | 22 | 135 | 0.0 | 0.0 | 0.00 | 0.23 | 0.23 | 99 | 1012.3 |
| 20260906084348 | 22 | 146 | 0.0 | 0.0 | 0.00 | 0.23 | 0.23 | 99 | 1012.3 |
| 20260906083843 | 22 | 143 | 0.0 | 0.0 | 0.00 | 0.23 | 0.23 | 99 | 1012.3 |
| 20260906083338 | 22 | 157 | 0.0 | 0.0 | 0.00 | 0.23 | 0.23 | 99 | 1012.2 |
| 20260906082832 | 22 | 181 | 0.0 | 0.0 | 0.00 | 0.23 | 0.23 | 99 | 1012.4 |
| 20260906082327 | 22 | 173 | 0.0 | 0.0 | 0.00 | 0.23 | 0.23 | 99 | 1012.5 |
| 20260906081823 | 22 | 158 | 0.0 | 0.0 | 0.00 | 0.23 | 0.23 | 99 | 1012.4 |
| 20260906081319 | 22 | 146 | 0.0 | 0.0 | 0.00 | 0.23 | 0.23 | 99 | 1012.3 |
| 20260906080815 | 22 | 156 | 0.0 | 0.0 | 0.00 | 0.23 | 0.23 | 99 | 1012.5 |
| 20260906080311 | 22 | 194 | 0.0 | 0.0 | 0.00 | 0.23 | 0.23 | 99 | 1012.5 |
| 20260906075810 | 22 | 138 | 0.0 | 0.0 | 0.00 | 0.23 | 0.23 | 99 | 1012.5 |
| 20260906075310 | 22 | 139 | 0.0 | 0.0 | 0.00 | 0.23 | 0.23 | 99 | 1012.5 |
| 20260906074805 | 22 | 139 | 0.0 | 0.0 | 0.00 | 0.23 | 0.23 | 99 | 1012.5 |
| 20260906074305 | 22 | 142 | 0.0 | 0.0 | 0.00 | 0.23 | 0.23 | 99 | 1012.7 |
| 20260906073804 | 22 | 111 | 0.0 | 0.0 | 0.00 | 0.23 | 0.23 | 99 | 1012.7 |
| 20260906073259 | 22 | 118 | 0.0 | 0.0 | 0.00 | 0.23 | 0.23 | 98 | 1012.6 |
| 20260906072755 | 22 | 140 | 0.0 | 0.0 | 0.00 | 0.23 | 0.23 | 98 | 1012.7 |
| 20260906072251 | 23 | 168 | 0.0 | 1.6 | 0.00 | 0.23 | 0.23 | 98 | 1013.0 |
| 20260906071747 | 23 | 131 | 1.6 | 1.6 | 0.00 | 0.23 | 0.23 | 98 | 1013.1 |
| 20260906071247 | 23 | 138 | 0.0 | 0.0 | 0.00 | 0.23 | 0.23 | 98 | 1013.2 |
| 20260906070744 | 23 | 131 | 0.0 | 0.0 | 0.00 | 0.23 | 0.23 | 98 | 1013.3 |
| 20260906070239 | 23 | 268 | 1.6 | 1.6 | 0.00 | 0.23 | 0.23 | 97 | 1013.4 |
| 20260906065738 | 23 | 144 | 0.0 | 1.6 | 0.13 | 0.23 | 0.23 | 97 | 1013.3 |
| 20260906065234 | 23 | 236 | 1.6 | 1.6 | 0.61 | 0.23 | 0.23 | 96 | 1013.3 |
| 20260906064729 | 23 | 96 | 0.0 | 0.0 | 1.07 | 0.20 | 0.20 | 95 | 1013.3 |
| 20260906064225 | 24 | 227 | 1.6 | 1.6 | 0.97 | 0.15 | 0.15 | 93 | 1012.8 |
| 20260906063720 | 25 | 114 | 0.0 | 0.0 | 0.18 | 0.03 | 0.03 | 88 | 1013.5 |
| 20260906063215 | 25 | 43 | 1.6 | 3.2 | 0.00 | 0.00 | 0.00 | 85 | 1013.4 |
| 20260906062711 | 25 | 65 | 0.0 | 0.0 | 0.00 | 0.00 | 0.00 | 84 | 1013.1 |
| 20260906062209 | 25 | 122 | 0.0 | 0.0 | 0.00 | 0.00 | 0.00 | 84 | 1012.8 |
| 20260906061706 | 25 | 52 | 1.6 | 3.2 | 0.00 | 0.00 | 0.00 | 84 | 1012.9 |
| 20260906061201 | 25 | 306 | 0.0 | 1.6 | 0.00 | 0.00 | 0.00 | 84 | 1012.8 |
| 20260906060657 | 25 | 75 | 0.0 | 0.0 | 0.00 | 0.00 | 0.00 | 84 | 1013.0 |
| 20260906060154 | 25 | 79 | 1.6 | 1.6 | 0.00 | 0.00 | 0.00 | 83 | 1012.7 |
| 20260906055649 | 25 | 245 | 0.0 | 0.0 | 0.00 | 0.00 | 0.00 | 84 | 1012.9 |
| 20260906055144 | 26 | 26 | 0.0 | 1.6 | 0.00 | 0.00 | 0.00 | 84 | 1012.6 |
| 20260906054640 | 26 | 179 | 0.0 | 0.0 | 0.00 | 0.00 | 0.00 | 84 | 1013.1 |
| 20260906054135 | 26 | 243 | 1.6 | 1.6 | 0.00 | 0.00 | 0.00 | 85 | 1013.0 |
| 20260906053631 | 25 | 342 | 0.0 | 0.0 | 0.00 | 0.00 | 0.00 | 86 | 1013.1 |
| 20260906053126 | 25 | 76 | 0.0 | 0.0 | 0.00 | 0.00 | 0.00 | 87 | 1013.1 |
| 20260906052622 | 25 | 51 | 1.6 | 1.6 | 0.00 | 0.00 | 0.00 | 89 | 1013.0 |
| 20260906052118 | 25 | 304 | 0.0 | 0.0 | 0.00 | 0.00 | 0.00 | 90 | 1013.0 |
| 20260906051614 | 25 | 68 | 1.6 | 3.2 | 0.00 | 0.00 | 0.00 | 92 | 1012.6 |
| 20260906051109 | 25 | 97 | 0.0 | 0.0 | 0.00 | 0.00 | 0.00 | 92 | 1012.7 |
| 20260906050604 | 25 | 97 | 0.0 | 0.0 | 0.00 | 0.00 | 0.00 | 92 | 1012.6 |
| 20260906050059 | 25 | 97 | 0.0 | 0.0 | 0.00 | 0.00 | 0.00 | 91 | 1012.5 |
| 20260906045557 | 25 | 96 | 0.0 | 0.0 | 0.00 | 0.00 | 0.00 | 91 | 1012.6 |
| 20260906045053 | 25 | 96 | 0.0 | 0.0 | 0.00 | 0.00 | 0.00 | 91 | 1012.5 |
| 20260906044549 | 25 | 95 | 0.0 | 0.0 | 0.00 | 0.00 | 0.00 | 91 | 1012.5 |
| 20260906044044 | 25 | 95 | 0.0 | 0.0 | 0.00 | 0.00 | 0.00 | 91 | 1012.8 |
| 20260906043540 | 25 | 110 | 0.0 | 0.0 | 0.00 | 0.00 | 0.00 | 90 | 1012.6 |
| 20260906043036 | 25 | 110 | 0.0 | 0.0 | 0.00 | 0.00 | 0.00 | 90 | 1012.5 |
| 20260906042534 | 25 | 110 | 0.0 | 0.0 | 0.00 | 0.00 | 0.00 | 90 | 1012.6 |
| 20260906042029 | 25 | 110 | 0.0 | 0.0 | 0.00 | 0.00 | 0.00 | 90 | 1012.6 |
| 20260906041526 | 25 | 108 | 0.0 | 0.0 | 0.00 | 0.00 | 0.00 | 90 | 1013.0 |
| 20260906041026 | 25 | 110 | 0.0 | 0.0 | 0.00 | 0.00 | 0.00 | 90 | 1012.8 |
| 20260906040520 | 25 | 110 | 0.0 | 0.0 | 0.00 | 0.00 | 0.00 | 90 | 1012.9 |
| 20260906040016 | 26 | 110 | 0.0 | 0.0 | 0.00 | 0.00 | 0.00 | 89 | 1013.0 |
| 20260906035511 | 26 | 110 | 0.0 | 0.0 | 0.00 | 0.00 | 0.00 | 89 | 1012.9 |
| 20260906035007 | 26 | 111 | 0.0 | 0.0 | 0.00 | 0.00 | 0.00 | 89 | 1012.8 |
| 20260906034507 | 26 | 109 | 0.0 | 0.0 | 0.00 | 0.00 | 0.00 | 89 | 1012.8 |
| 20260906034002 | 26 | 108 | 0.0 | 0.0 | 0.00 | 0.00 | 0.00 | 88 | 1013.1 |
| 20260906033456 | 26 | 140 | 0.0 | 0.0 | 0.00 | 0.00 | 0.00 | 88 | 1012.6 |
| 20260906032952 | 26 | 140 | 0.0 | 0.0 | 0.00 | 0.00 | 0.00 | 88 | 1012.8 |
| 20260906032448 | 26 | 140 | 0.0 | 0.0 | 0.00 | 0.00 | 0.00 | 87 | 1012.6 |
| 20260906031943 | 26 | 140 | 0.0 | 0.0 | 0.00 | 0.00 | 0.00 | 87 | 1012.7 |
| 20260906031438 | 26 | 140 | 0.0 | 0.0 | 0.00 | 0.00 | 0.00 | 87 | 1012.7 |
| 20260906030933 | 26 | 140 | 0.0 | 0.0 | 0.00 | 0.00 | 0.00 | 87 | 1012.7 |
| 20260906030428 | 26 | 140 | 0.0 | 0.0 | 0.00 | 0.00 | 0.00 | 87 | 1012.6 |
| 20260906025922 | 26 | 110 | 0.0 | 0.0 | 0.00 | 0.00 | 0.00 | 86 | 1012.5 |
| 20260906025417 | 26 | 153 | 1.6 | 1.6 | 0.00 | 0.00 | 0.00 | 86 | 1012.6 |
| 20260906024916 | 26 | 79 | 0.0 | 0.0 | 0.00 | 0.00 | 0.00 | 87 | 1012.6 |
| 20260906024415 | 26 | 140 | 0.0 | 0.0 | 0.00 | 0.00 | 0.00 | 88 | 1012.4 |
| 20260906023910 | 26 | 142 | 0.0 | 0.0 | 0.00 | 0.00 | 0.00 | 88 | 1012.1 |
| 20260906023407 | 26 | 150 | 1.6 | 1.6 | 0.00 | 0.00 | 0.00 | 88 | 1012.1 |
| 20260906022907 | 26 | 155 | 1.6 | 1.6 | 0.00 | 0.00 | 0.00 | 88 | 1011.8 |
| 20260906022402 | 26 | 144 | 0.0 | 0.0 | 0.00 | 0.00 | 0.00 | 88 | 1011.8 |
| 20260906021857 | 26 | 144 | 0.0 | 0.0 | 0.00 | 0.00 | 0.00 | 88 | 1011.7 |
| 20260906021356 | 26 | 144 | 0.0 | 0.0 | 0.00 | 0.00 | 0.00 | 87 | 1011.6 |
| 20260906020851 | 26 | 144 | 0.0 | 0.0 | 0.00 | 0.00 | 0.00 | 87 | 1011.3 |
| 20260906020350 | 26 | 144 | 0.0 | 0.0 | 0.00 | 0.00 | 0.00 | 87 | 1011.7 |
| 20260906015845 | 27 | 143 | 0.0 | 0.0 | 0.00 | 0.00 | 0.00 | 86 | 1011.5 |
| 20260906015344 | 27 | 146 | 0.0 | 0.0 | 0.00 | 0.00 | 0.00 | 85 | 1011.6 |
| 20260906014839 | 27 | 155 | 0.0 | 0.0 | 0.00 | 0.00 | 0.00 | 84 | 1011.6 |
| 20260906014339 | 27 | 154 | 0.0 | 0.0 | 0.00 | 0.00 | 0.00 | 84 | 1011.6 |
| 20260906013830 | 27 | 154 | 0.0 | 0.0 | 0.00 | 0.00 | 0.00 | 83 | 1011.6 |
| 20260906013325 | 27 | 154 | 0.0 | 0.0 | 0.00 | 0.00 | 0.00 | 83 | 1011.7 |
| 20260906012821 | 27 | 154 | 0.0 | 0.0 | 0.00 | 0.00 | 0.00 | 82 | 1011.6 |
| 20260906012321 | 27 | 154 | 0.0 | 0.0 | 0.00 | 0.00 | 0.00 | 82 | 1011.6 |
| 20260906011815 | 27 | 154 | 0.0 | 0.0 | 0.00 | 0.00 | 0.00 | 82 | 1011.6 |
| 20260906011315 | 27 | 154 | 0.0 | 0.0 | 0.00 | 0.00 | 0.00 | 82 | 1011.8 |
| 20260906010812 | 27 | 154 | 0.0 | 0.0 | 0.00 | 0.00 | 0.00 | 81 | 1011.7 |
| 20260906010308 | 27 | 154 | 0.0 | 0.0 | 0.00 | 0.00 | 0.00 | 80 | 1012.1 |
| 20260906005803 | 28 | 154 | 0.0 | 0.0 | 0.00 | 0.00 | 0.00 | 80 | 1011.9 |
| 20260906005301 | 28 | 154 | 0.0 | 0.0 | 0.00 | 0.00 | 0.00 | 79 | 1011.7 |
| 20260906004800 | 28 | 154 | 0.0 | 0.0 | 0.00 | 0.00 | 0.00 | 78 | 1011.6 |
| 20260906004255 | 28 | 154 | 0.0 | 0.0 | 0.00 | 0.00 | 0.00 | 78 | 1011.7 |
| 20260906003750 | 28 | 153 | 0.0 | 0.0 | 0.00 | 0.00 | 0.00 | 79 | 1011.6 |
| 20260906003246 | 28 | 154 | 0.0 | 0.0 | 0.00 | 0.00 | 0.00 | 78 | 1011.4 |
| 20260906002741 | 28 | 154 | 0.0 | 0.0 | 0.00 | 0.00 | 0.00 | 78 | 1011.4 |
| 20260906002241 | 28 | 154 | 0.0 | 0.0 | 0.00 | 0.00 | 0.00 | 77 | 1011.5 |
| 20260906001736 | 28 | 153 | 0.0 | 0.0 | 0.00 | 0.00 | 0.00 | 77 | 1011.4 |
| 20260906001231 | 29 | 154 | 0.0 | 0.0 | 0.00 | 0.00 | 0.00 | 76 | 1011.5 |
| 20260906000727 | 29 | 154 | 0.0 | 0.0 | 0.00 | 0.00 | 0.00 | 76 | 1011.6 |
| 20260906000226 | 30 | 154 | 0.0 | 0.0 | 0.00 | 0.00 | 0.00 | 75 | 1011.7 |
| 20260905235721 | 30 | 154 | 0.0 | 0.0 | 0.00 | 0.00 | 0.00 | 74 | 1011.4 |
| 20260905235216 | 30 | 153 | 0.0 | 0.0 | 0.00 | 0.00 | 0.00 | 72 | 1011.7 |
| 20260905234711 | 30 | 154 | 0.0 | 0.0 | 0.00 | 0.00 | 0.00 | 71 | 1011.8 |
| 20260905234207 | 30 | 154 | 0.0 | 0.0 | 0.00 | 0.00 | 0.00 | 71 | 1011.8 |
| 20260905233702 | 31 | 150 | 0.0 | 0.0 | 0.00 | 0.00 | 0.00 | 69 | 1011.9 |
| 20260905233201 | 31 | 149 | 0.0 | 0.0 | 0.00 | 0.00 | 0.00 | 69 | 1011.7 |
| 20260905232656 | 31 | 154 | 0.0 | 0.0 | 0.00 | 0.00 | 0.00 | 69 | 1011.8 |
| 20260905232152 | 31 | 154 | 0.0 | 0.0 | 0.00 | 0.00 | 0.00 | 68 | 1011.7 |
| 20260905231647 | 32 | 150 | 0.0 | 0.0 | 0.00 | 0.00 | 0.00 | 66 | 1011.7 |
| 20260905231143 | 32 | 157 | 0.0 | 0.0 | 0.00 | 0.00 | 0.00 | 65 | 1011.3 |
| 20260905230639 | 33 | 159 | 0.0 | 0.0 | 0.00 | 0.00 | 0.00 | 62 | 1011.6 |
| 20260905230137 | 33 | 115 | 0.0 | 1.6 | 0.00 | 0.00 | 0.00 | 59 | 1011.6 |
| 20260905225636 | 34 | 156 | 0.0 | 0.0 | 0.00 | 0.00 | 0.00 | 59 | 1011.7 |
| 20260905225131 | 35 | 113 | 0.0 | 0.0 | 0.00 | 0.00 | 0.00 | 55 | 1011.5 |
| 20260905224630 | 35 | 197 | 0.0 | 0.0 | 0.00 | 0.00 | 0.00 | 52 | 1011.6 |
| 20260905224125 | 35 | 324 | 1.6 | 1.6 | 0.00 | 0.00 | 0.00 | 50 | 1011.3 |
| 20260905223622 | 36 | 106 | 0.0 | 1.6 | 0.00 | 0.00 | 0.00 | 50 | 1011.5 |
| 20260905223118 | 36 | 250 | 0.0 | 0.0 | 0.00 | 0.00 | 0.00 | 51 | 1011.6 |
| 20260905222613 | 36 | 188 | 0.0 | 0.0 | 0.00 | 0.00 | 0.00 | 51 | 1011.4 |
| 20260905222108 | 36 | 59 | 1.6 | 1.6 | 0.00 | 0.00 | 0.00 | 50 | 1011.6 |
| 20260905221604 | 36 | 56 | 0.0 | 0.0 | 0.00 | 0.00 | 0.00 | 47 | 1011.7 |
| 20260905221100 | 37 | 217 | 1.6 | 1.6 | 0.00 | 0.00 | 0.00 | 49 | 1011.7 |
| 20260905220555 | 37 | 219 | 0.0 | 0.0 | 0.00 | 0.00 | 0.00 | 48 | 1011.8 |
| 20260905220051 | 36 | 188 | 0.0 | 0.0 | 0.00 | 0.00 | 0.00 | 49 | 1011.7 |
| 20260905215550 | 37 | 180 | 0.0 | 0.0 | 0.00 | 0.00 | 0.00 | 48 | 1011.5 |
| 20260905215047 | 36 | 168 | 1.6 | 3.2 | 0.00 | 0.00 | 0.00 | 50 | 1011.6 |
| 20260905214542 | 36 | 355 | 3.2 | 3.2 | 0.00 | 0.00 | 0.00 | 47 | 1011.5 |
| 20260905214037 | 36 | 272 | 0.0 | 0.0 | 0.00 | 0.00 | 0.00 | 47 | 1011.6 |
| 20260905213532 | 36 | 18 | 3.2 | 3.2 | 0.00 | 0.00 | 0.00 | 48 | 1011.5 |
| 20260905213028 | 37 | 328 | 0.0 | 1.6 | 0.00 | 0.00 | 0.00 | 45 | 1011.6 |
| 20260905212523 | 37 | 274 | 1.6 | 1.6 | 0.00 | 0.00 | 0.00 | 47 | 1011.7 |
| 20260905212022 | 37 | 193 | 1.6 | 1.6 | 0.00 | 0.00 | 0.00 | 49 | 1011.7 |
| 20260905211517 | 37 | 106 | 0.0 | 1.6 | 0.00 | 0.00 | 0.00 | 48 | 1011.8 |
| 20260905211013 | 36 | 315 | 0.0 | 1.6 | 0.00 | 0.00 | 0.00 | 46 | 1011.6 |
| 20260905210509 | 37 | 36 | 3.2 | 3.2 | 0.00 | 0.00 | 0.00 | 47 | 1011.7 |
| 20260905210009 | 36 | 20 | 1.6 | 1.6 | 0.00 | 0.00 | 0.00 | 48 | 1011.9 |
| 20260905205503 | 36 | 277 | 1.6 | 1.6 | 0.00 | 0.00 | 0.00 | 48 | 1012.1 |
| 20260905205002 | 36 | 314 | 1.6 | 1.6 | 0.00 | 0.00 | 0.00 | 49 | 1012.1 |
| 20260905204457 | 36 | 354 | 1.6 | 6.4 | 0.00 | 0.00 | 0.00 | 50 | 1012.1 |
| 20260905203957 | 36 | 189 | 1.6 | 1.6 | 0.00 | 0.00 | 0.00 | 50 | 1012.2 |
| 20260905203452 | 36 | 72 | 3.2 | 3.2 | 0.00 | 0.00 | 0.00 | 50 | 1012.2 |
| 20260905202947 | 36 | 11 | 4.8 | 4.8 | 0.00 | 0.00 | 0.00 | 50 | 1012.2 |
| 20260905202442 | 36 | 75 | 4.8 | 4.8 | 0.00 | 0.00 | 0.00 | 49 | 1012.4 |
| 20260905201938 | 36 | 79 | 3.2 | 3.2 | 0.00 | 0.00 | 0.00 | 50 | 1012.4 |
| 20260905201433 | 37 | 292 | 6.4 | 6.4 | 0.00 | 0.00 | 0.00 | 47 | 1012.5 |
| 20260905200927 | 37 | 335 | 4.8 | 6.4 | 0.00 | 0.00 | 0.00 | 46 | 1012.5 |
| 20260905200423 | 37 | 224 | 0.0 | 0.0 | 0.00 | 0.00 | 0.00 | 54 | 1012.6 |
| 20260905195921 | 37 | 52 | 3.2 | 4.8 | 0.00 | 0.00 | 0.00 | 49 | 1012.7 |
| 20260905195417 | 37 | 278 | 3.2 | 4.8 | 0.00 | 0.00 | 0.00 | 47 | 1012.9 |
| 20260905194912 | 37 | 335 | 1.6 | 3.2 | 0.00 | 0.00 | 0.00 | 48 | 1012.7 |
| 20260905194411 | 36 | 14 | 4.8 | 4.8 | 0.00 | 0.00 | 0.00 | 49 | 1012.9 |
| 20260905193906 | 37 | 238 | 1.6 | 1.6 | 0.00 | 0.00 | 0.00 | 49 | 1012.9 |
| 20260905193401 | 37 | 10 | 0.0 | 1.6 | 0.00 | 0.00 | 0.00 | 49 | 1012.9 |
| 20260905192856 | 37 | 326 | 0.0 | 1.6 | 0.00 | 0.00 | 0.00 | 49 | 1012.8 |
| 20260905192351 | 37 | 302 | 3.2 | 3.2 | 0.00 | 0.00 | 0.00 | 49 | 1012.9 |
| 20260905191851 | 36 | 166 | 1.6 | 1.6 | 0.00 | 0.00 | 0.00 | 49 | 1013.0 |
| 20260905191350 | 36 | 227 | 1.6 | 1.6 | 0.00 | 0.00 | 0.00 | 50 | 1013.1 |
| 20260905190849 | 36 | 227 | 1.6 | 1.6 | 0.00 | 0.00 | 0.00 | 49 | 1013.2 |
| 20260905190342 | 35 | 274 | 0.0 | 0.0 | 0.00 | 0.00 | 0.00 | 50 | 1013.3 |
| 20260905185841 | 35 | 52 | 3.2 | 3.2 | 0.00 | 0.00 | 0.00 | 50 | 1013.5 |
| 20260905185331 | 35 | 96 | 1.6 | 3.2 | 0.00 | 0.00 | 0.00 | 50 | 1013.8 |
| 20260905184830 | 35 | 110 | 1.6 | 1.6 | 0.00 | 0.00 | 0.00 | 50 | 1013.5 |
| 20260905184330 | 36 | 90 | 1.6 | 1.6 | 0.00 | 0.00 | 0.00 | 47 | 1013.7 |
| 20260905183827 | 36 | 303 | 1.6 | 1.6 | 0.00 | 0.00 | 0.00 | 45 | 1014.0 |
| 20260905183324 | 35 | 134 | 1.6 | 1.6 | 0.00 | 0.00 | 0.00 | 48 | 1014.0 |
| 20260905182823 | 35 | 111 | 1.6 | 1.6 | 0.00 | 0.00 | 0.00 | 50 | 1014.1 |
| 20260905182318 | 35 | 348 | 1.6 | 3.2 | 0.00 | 0.00 | 0.00 | 50 | 1014.0 |
| 20260905181813 | 35 | 70 | 1.6 | 3.2 | 0.00 | 0.00 | 0.00 | 52 | 1014.1 |
| 20260905181307 | 35 | 63 | 1.6 | 1.6 | 0.00 | 0.00 | 0.00 | 50 | 1014.1 |
| 20260905180806 | 35 | 120 | 0.0 | 1.6 | 0.00 | 0.00 | 0.00 | 53 | 1014.3 |
| 20260905180301 | 35 | 98 | 0.0 | 1.6 | 0.00 | 0.00 | 0.00 | 51 | 1014.2 |
| 20260905175756 | 35 | 48 | 0.0 | 1.6 | 0.00 | 0.00 | 0.00 | 51 | 1014.4 |
| 20260905175250 | 35 | 174 | 1.6 | 3.2 | 0.00 | 0.00 | 0.00 | 51 | 1014.2 |
| 20260905174746 | 34 | 19 | 1.6 | 1.6 | 0.00 | 0.00 | 0.00 | 53 | 1014.2 |
| 20260905174242 | 34 | 140 | 1.6 | 3.2 | 0.00 | 0.00 | 0.00 | 53 | 1014.1 |
| 20260905173737 | 35 | 9 | 3.2 | 4.8 | 0.00 | 0.00 | 0.00 | 53 | 1014.2 |
| 20260905173233 | 35 | 284 | 0.0 | 0.0 | 0.00 | 0.00 | 0.00 | 56 | 1014.3 |
| 20260905172732 | 34 | 204 | 1.6 | 1.6 | 0.00 | 0.00 | 0.00 | 56 | 1014.3 |
| 20260905172227 | 34 | 226 | 1.6 | 1.6 | 0.00 | 0.00 | 0.00 | 56 | 1014.3 |
| 20260905171723 | 33 | 79 | 1.6 | 3.2 | 0.00 | 0.00 | 0.00 | 56 | 1014.3 |
| 20260905171219 | 33 | 210 | 1.6 | 1.6 | 0.00 | 0.00 | 0.00 | 58 | 1014.5 |
| 20260905170716 | 33 | 25 | 4.8 | 4.8 | 0.00 | 0.00 | 0.00 | 58 | 1014.6 |
| 20260905170216 | 33 | 342 | 0.0 | 1.6 | 0.00 | 0.00 | 0.00 | 57 | 1014.6 |
| 20260905165715 | 33 | 83 | 1.6 | 1.6 | 0.00 | 0.00 | 0.00 | 58 | 1014.6 |
| 20260905165211 | 33 | 77 | 1.6 | 1.6 | 0.00 | 0.00 | 0.00 | 61 | 1014.7 |
| 20260905164710 | 32 | 16 | 1.6 | 3.2 | 0.00 | 0.00 | 0.00 | 60 | 1014.6 |
| 20260905164205 | 32 | 39 | 1.6 | 1.6 | 0.00 | 0.00 | 0.00 | 60 | 1014.6 |
| 20260905163701 | 32 | 10 | 3.2 | 3.2 | 0.00 | 0.00 | 0.00 | 59 | 1014.8 |
| 20260905163157 | 32 | 92 | 0.0 | 0.0 | 0.00 | 0.00 | 0.00 | 59 | 1014.8 |
| 20260905162653 | 32 | 310 | 1.6 | 1.6 | 0.00 | 0.00 | 0.00 | 60 | 1015.1 |
| 20260905162152 | 32 | 208 | 0.0 | 1.6 | 0.00 | 0.00 | 0.00 | 60 | 1014.9 |
| 20260905161647 | 32 | 33 | 3.2 | 4.8 | 0.00 | 0.00 | 0.00 | 61 | 1014.9 |
| 20260905161145 | 32 | 153 | 0.0 | 0.0 | 0.00 | 0.00 | 0.00 | 63 | 1014.9 |
| 20260905160639 | 32 | 270 | 1.6 | 1.6 | 0.00 | 0.00 | 0.00 | 64 | 1015.0 |
| 20260905160138 | 32 | 81 | 0.0 | 1.6 | 0.00 | 0.00 | 0.00 | 63 | 1015.2 |
| 20260905155633 | 32 | 237 | 3.2 | 3.2 | 0.00 | 0.00 | 0.00 | 62 | 1015.1 |
| 20260905155132 | 32 | 340 | 0.0 | 1.6 | 0.00 | 0.00 | 0.00 | 64 | 1015.1 |
| 20260905154632 | 32 | 99 | 0.0 | 1.6 | 0.00 | 0.00 | 0.00 | 66 | 1015.3 |
| 20260905154128 | 31 | 22 | 1.6 | 3.2 | 0.00 | 0.00 | 0.00 | 66 | 1015.2 |
| 20260905153623 | 31 | 29 | 4.8 | 4.8 | 0.00 | 0.00 | 0.00 | 67 | 1015.4 |
| 20260905153119 | 31 | 283 | 0.0 | 1.6 | 0.00 | 0.00 | 0.00 | 67 | 1015.3 |
| 20260905152613 | 31 | 9 | 6.4 | 6.4 | 0.00 | 0.00 | 0.00 | 67 | 1015.2 |
| 20260905152108 | 31 | 108 | 1.6 | 1.6 | 0.00 | 0.00 | 0.00 | 68 | 1015.4 |
| 20260905151603 | 30 | 305 | 0.0 | 1.6 | 0.00 | 0.00 | 0.00 | 69 | 1015.6 |
| 20260905151058 | 30 | 19 | 1.6 | 1.6 | 0.00 | 0.00 | 0.00 | 70 | 1015.7 |
| 20260905150554 | 30 | 29 | 1.6 | 3.2 | 0.00 | 0.00 | 0.00 | 69 | 1015.6 |
| 20260905150051 | 30 | 56 | 0.0 | 0.0 | 0.00 | 0.00 | 0.00 | 71 | 1015.6 |
| 20260905145545 | 30 | 342 | 1.6 | 1.6 | 0.00 | 0.00 | 0.00 | 71 | 1015.4 |
| 20260905145044 | 30 | 19 | 3.2 | 3.2 | 0.00 | 0.00 | 0.00 | 71 | 1015.3 |
| 20260905144539 | 30 | 25 | 3.2 | 4.8 | 0.00 | 0.00 | 0.00 | 73 | 1015.4 |
| 20260905144038 | 29 | 87 | 0.0 | 1.6 | 0.00 | 0.00 | 0.00 | 74 | 1015.6 |
| 20260905143538 | 29 | 30 | 1.6 | 3.2 | 0.00 | 0.00 | 0.00 | 74 | 1015.7 |
| 20260905143033 | 29 | 83 | 0.0 | 0.0 | 0.00 | 0.00 | 0.00 | 78 | 1015.4 |
| 20260905142532 | 28 | 30 | 0.0 | 0.0 | 0.00 | 0.00 | 0.00 | 79 | 1015.7 |
| 20260905142027 | 28 | 62 | 0.0 | 0.0 | 0.00 | 0.00 | 0.00 | 84 | 1015.6 |
| 20260905141521 | 28 | 61 | 0.0 | 0.0 | 0.00 | 0.00 | 0.00 | 85 | 1015.8 |
| 20260905141018 | 27 | 61 | 0.0 | 0.0 | 0.00 | 0.00 | 0.00 | 84 | 1015.4 |
| 20260905140513 | 27 | 61 | 0.0 | 0.0 | 0.00 | 0.00 | 0.00 | 86 | 1015.3 |
| 20260905140011 | 27 | 61 | 0.0 | 0.0 | 0.00 | 0.00 | 0.00 | 87 | 1015.4 |
| 20260905135507 | 27 | 61 | 0.0 | 0.0 | 0.00 | 0.00 | 0.00 | 87 | 1015.6 |
| 20260905135002 | 26 | 61 | 0.0 | 0.0 | 0.00 | 0.00 | 0.00 | 88 | 1015.6 |
| 20260905134502 | 26 | 61 | 0.0 | 0.0 | 0.00 | 0.00 | 0.00 | 88 | 1015.2 |
| 20260905134001 | 26 | 61 | 0.0 | 0.0 | 0.00 | 0.00 | 0.00 | 88 | 1015.6 |
| 20260905133455 | 26 | 61 | 0.0 | 0.0 | 0.00 | 0.00 | 0.00 | 89 | 1015.6 |
| 20260905132949 | 26 | 61 | 0.0 | 0.0 | 0.00 | 0.00 | 0.00 | 90 | 1015.6 |
| 20260905132445 | 26 | 61 | 0.0 | 0.0 | 0.00 | 0.00 | 0.00 | 90 | 1015.4 |
| 20260905131939 | 26 | 61 | 0.0 | 0.0 | 0.00 | 0.00 | 0.00 | 91 | 1015.4 |
| 20260905131435 | 26 | 61 | 0.0 | 0.0 | 0.00 | 0.00 | 0.00 | 92 | 1015.4 |
| 20260905130930 | 25 | 61 | 0.0 | 0.0 | 0.00 | 0.00 | 0.00 | 93 | 1015.7 |
| 20260905130429 | 25 | 61 | 0.0 | 0.0 | 0.00 | 0.00 | 0.00 | 93 | 1015.6 |
| 20260905125924 | 25 | 61 | 0.0 | 0.0 | 0.00 | 0.00 | 0.00 | 93 | 1015.3 |
| 20260905125419 | 24 | 61 | 0.0 | 0.0 | 0.00 | 0.00 | 0.00 | 94 | 1015.7 |
| 20260905124914 | 24 | 62 | 0.0 | 0.0 | 0.00 | 0.00 | 0.00 | 94 | 1015.7 |
| 20260905124411 | 24 | 62 | 0.0 | 0.0 | 0.00 | 0.00 | 0.00 | 95 | 1015.8 |
| 20260905123911 | 24 | 61 | 0.0 | 0.0 | 0.00 | 0.00 | 0.00 | 96 | 1015.8 |
| 20260905123407 | 23 | 61 | 0.0 | 0.0 | 0.00 | 0.00 | 0.00 | 96 | 1015.6 |